Location: Clover
(42.5131°N, 114.6874°W)
Time: 14:49:10
(UTC+00:00)

Transit 2A Rocket - Pass Details

Date: 09 November 2024
Orbit: 585 x 904 km, 66.7° (Epoch: 02 December)

Event Time Altitude Azimuth Distance (km) Brightness Sun altitude
Rises 01:20:25 0° 336° (NNW) 3,318 8.4 -11.0°
Reaches altitude 10° 01:23:23 10° 350° (N) 2,325 7.5 -11.5°
Maximum altitude 01:27:41 25° 44° (NE) 1,463 6.0 -12.3°
Enters shadow 01:29:56 18° 82° (E) 1,690 6.1 -12.7°
